Weather History for Cumberland, WI

Change the Weather History Date:

Sunday, September 29, 2013

  Actual Average (KRPD) Record (KRPD)
Temperature  
Mean Temperature 53 °F -  
Max Temperature 69 °F 60 °F 78 °F (2000)
Min Temperature 37 °F 39 °F 26 °F (2003)
Degree Days  
Heating Degree Days 12    
Growing Degree Days 3 (Base 50)    
Moisture  
Dew Point 42 °F    
Average Humidity 70    
Maximum Humidity 100    
Minimum Humidity 35    
Precipitation  
Precipitation 0.00 in - - ()
Sea Level Pressure  
Sea Level Pressure 29.92 in    
Wind  
Wind Speed 5 mph (South)    
Max Wind Speed 10 mph    
Max Gust Speed 17 mph    
Visibility 10 miles    
Events      
Averages and records for this station are not official NWS values.
T = Trace of Precipitation, MM = Missing Value Source: NWS Daily Summary

Daily Weather History Graph

Daily Weather History Graph

Search for Another Location

Airport:

Trip Planner

Search our weather history database for the weather conditions in past years. The results will help you decide how hot, cold, wet, or windy it might be!

Date:

Astronomy

Sep. 29, 2013 Rise Set
Actual Time 7:03 AM CDT 6:51 PM CDT
Civil Twilight 6:34 AM CDT 7:20 PM CDT
Nautical Twilight 5:59 AM CDT 7:55 PM CDT
Astronomical Twilight 5:24 AM CDT 8:30 PM CDT
Moon 1:32 AM CDT (9/29) 3:59 PM CDT (9/29)
Length of Visible Light 12h 46m
Length of Day
11h 47m
Waning Crescent, 27% of the Moon is Illuminated
Sep 29
Waning Crescent
Oct 4
New
Oct 11
First Quarter
Oct 18
Full
Oct 26
Last Quarter

Hourly Weather History & Observations

Time (CDT) Temp. Windchill Dew Point Humidity Pressure Visibility Wind Dir Wind Speed Gust Speed Precip Events Conditions
12:15 AM 41.0 °F 38.0 °F 41.0 °F 100% 29.94 in 10.0 mi SW 4.6 mph - N/A   Clear
12:35 AM 41.0 °F 38.0 °F 39.2 °F 93% 29.93 in 10.0 mi SSW 4.6 mph - N/A   Clear
12:55 AM 41.0 °F 38.0 °F 41.0 °F 100% 29.93 in 10.0 mi South 4.6 mph - N/A   Clear
1:15 AM 41.0 °F 37.1 °F 41.0 °F 100% 29.94 in 10.0 mi SSW 5.8 mph - N/A   Clear
1:35 AM 42.8 °F 40.1 °F 41.0 °F 93% 29.94 in 10.0 mi SSW 4.6 mph - N/A   Clear
1:55 AM 41.0 °F 38.0 °F 41.0 °F 100% 29.95 in 10.0 mi SSW 4.6 mph - N/A   Clear
2:15 AM 39.2 °F 35.9 °F 39.2 °F 100% 29.95 in 7.0 mi SSW 4.6 mph - N/A   Clear
2:35 AM 41.0 °F 38.0 °F 41.0 °F 100% 29.95 in 10.0 mi South 4.6 mph - N/A   Clear
2:55 AM 41.0 °F 37.1 °F 39.2 °F 93% 29.95 in 10.0 mi South 5.8 mph - N/A   Clear
3:15 AM 41.0 °F 37.1 °F 41.0 °F 100% 29.94 in 10.0 mi South 5.8 mph - N/A   Clear
3:35 AM 41.0 °F 37.1 °F 39.2 °F 93% 29.94 in 10.0 mi South 5.8 mph - N/A   Clear
3:55 AM 41.0 °F 38.0 °F 39.2 °F 93% 29.94 in 10.0 mi South 4.6 mph - N/A   Clear
4:15 AM 41.0 °F 38.0 °F 39.2 °F 93% 29.95 in 10.0 mi SSW 4.6 mph - N/A   Clear
4:35 AM 39.2 °F 35.9 °F 39.2 °F 100% 29.95 in 10.0 mi South 4.6 mph - N/A   Clear
4:55 AM 39.2 °F 35.9 °F 37.4 °F 93% 29.95 in 10.0 mi South 4.6 mph - N/A   Clear
5:15 AM 39.2 °F 37.0 °F 37.4 °F 93% 29.95 in 10.0 mi South 3.5 mph - N/A   Clear
5:35 AM 39.2 °F 35.9 °F 37.4 °F 93% 29.95 in 10.0 mi South 4.6 mph - N/A   Clear
5:55 AM 37.4 °F 33.8 °F 37.4 °F 100% 29.96 in 10.0 mi South 4.6 mph - N/A   Clear
6:15 AM 37.4 °F 34.9 °F 35.6 °F 93% 29.96 in 10.0 mi South 3.5 mph - N/A   Clear
6:35 AM 37.4 °F 34.9 °F 37.4 °F 100% 29.96 in 10.0 mi South 3.5 mph - N/A   Clear
6:55 AM 37.4 °F 34.9 °F 37.4 °F 100% 29.96 in 10.0 mi SSE 3.5 mph - N/A   Clear
7:15 AM 37.4 °F 34.9 °F 37.4 °F 100% 29.97 in 10.0 mi South 3.5 mph - N/A   Clear
7:35 AM 37.4 °F 34.9 °F 37.4 °F 100% 29.98 in 10.0 mi South 3.5 mph - N/A   Clear
7:55 AM 41.0 °F 39.0 °F 41.0 °F 100% 29.97 in 10.0 mi South 3.5 mph - N/A   Clear
8:15 AM 42.8 °F - 42.8 °F 100% 29.97 in 10.0 mi Calm Calm - N/A   Clear
8:35 AM 44.6 °F - 42.8 °F 93% 29.97 in 10.0 mi Calm Calm - N/A   Clear
8:55 AM 46.4 °F 43.5 °F 44.6 °F 93% 29.97 in 10.0 mi South 5.8 mph - N/A   Clear
9:15 AM 50.0 °F - 44.6 °F 82% 29.97 in 10.0 mi South 4.6 mph - N/A   Clear
9:35 AM 51.8 °F - 44.6 °F 76% 29.98 in 10.0 mi SSW 5.8 mph - N/A   Clear
9:55 AM 53.6 °F - 44.6 °F 72% 29.98 in 10.0 mi SW 4.6 mph - N/A   Clear
10:15 AM 53.6 °F - 44.6 °F 72% 29.98 in 10.0 mi SW 3.5 mph - N/A   Clear
10:35 AM 55.4 °F - 44.6 °F 67% 29.98 in 10.0 mi SSW 3.5 mph - N/A   Clear
10:55 AM 59.0 °F - 44.6 °F 59% 29.98 in 10.0 mi Calm Calm - N/A   Clear
11:15 AM 59.0 °F - 44.6 °F 59% 29.97 in 10.0 mi South 5.8 mph - N/A   Clear
11:35 AM 60.8 °F - 44.6 °F 55% 29.97 in 10.0 mi South 6.9 mph - N/A   Clear
11:55 AM 62.6 °F - 44.6 °F 52% 29.96 in 10.0 mi SSE 5.8 mph - N/A   Clear
12:15 PM 62.6 °F - 44.6 °F 52% 29.96 in 10.0 mi South 5.8 mph - N/A   Clear
12:35 PM 64.4 °F - 44.6 °F 49% 29.96 in 10.0 mi SSE 8.1 mph - N/A   Clear
12:55 PM 66.2 °F - 44.6 °F 46% 29.95 in 10.0 mi South 5.8 mph - N/A   Clear
1:15 PM 66.2 °F - 44.6 °F 46% 29.94 in 10.0 mi SSW 6.9 mph - N/A   Clear
1:35 PM 68.0 °F - 42.8 °F 40% 29.93 in 10.0 mi South 9.2 mph - N/A   Clear
1:55 PM 68.0 °F - 42.8 °F 40% 29.93 in 10.0 mi South 9.2 mph - N/A   Clear
2:15 PM 68.0 °F - 42.8 °F 40% 29.92 in 10.0 mi South 8.1 mph - N/A   Clear
2:35 PM 68.0 °F - 42.8 °F 40% 29.91 in 10.0 mi South 8.1 mph 17.3 mph N/A   Clear
2:55 PM 69.8 °F - 42.8 °F 38% 29.91 in 10.0 mi South 9.2 mph 16.1 mph N/A   Clear
3:15 PM 69.8 °F - 42.8 °F 38% 29.90 in 10.0 mi South 10.4 mph 16.1 mph N/A   Clear
3:35 PM 69.8 °F - 42.8 °F 38% 29.90 in 10.0 mi South 9.2 mph - N/A   Clear
3:55 PM 69.8 °F - 42.8 °F 38% 29.89 in 10.0 mi South 10.4 mph - N/A   Clear
4:15 PM 69.8 °F - 41.0 °F 35% 29.89 in 10.0 mi SSW 9.2 mph 16.1 mph N/A   Clear
4:35 PM 69.8 °F - 41.0 °F 35% 29.88 in 10.0 mi South 8.1 mph - N/A   Clear
4:55 PM 69.8 °F - 41.0 °F 35% 29.88 in 10.0 mi South 9.2 mph - N/A   Clear
5:15 PM 69.8 °F - 41.0 °F 35% 29.88 in 10.0 mi South 8.1 mph - N/A   Clear
5:35 PM 68.0 °F - 42.8 °F 40% 29.88 in 10.0 mi South 10.4 mph - N/A   Clear
5:55 PM 68.0 °F - 42.8 °F 40% 29.87 in 10.0 mi South 9.2 mph 16.1 mph N/A   Clear
6:15 PM 66.2 °F - 42.8 °F 43% 29.87 in 10.0 mi SSE 5.8 mph - N/A   Clear
6:35 PM 62.6 °F - 42.8 °F 48% 29.87 in 10.0 mi SSE 5.8 mph - N/A   Clear
6:55 PM 60.8 °F - 44.6 °F 55% 29.86 in 10.0 mi SSE 5.8 mph - N/A   Clear
7:15 PM 60.8 °F - 44.6 °F 55% 29.86 in 10.0 mi SSE 8.1 mph - N/A   Clear
7:35 PM 60.8 °F - 44.6 °F 55% 29.87 in 10.0 mi SSE 6.9 mph - N/A   Clear
7:55 PM 59.0 °F - 44.6 °F 59% 29.87 in 10.0 mi SSE 6.9 mph - N/A   Clear
8:15 PM 59.0 °F - 44.6 °F 59% 29.87 in 10.0 mi SSE 6.9 mph - N/A   Clear
8:35 PM 59.0 °F - 44.6 °F 59% 29.87 in 10.0 mi SSE 6.9 mph - N/A   Clear
8:55 PM 59.0 °F - 44.6 °F 59% 29.87 in 10.0 mi SSE 8.1 mph - N/A   Clear
9:15 PM 59.0 °F - 44.6 °F 59% 29.87 in 10.0 mi SSE 9.2 mph - N/A   Clear
9:35 PM 57.2 °F - 44.6 °F 63% 29.87 in 10.0 mi SSE 6.9 mph - N/A   Clear
9:55 PM 55.4 °F - 44.6 °F 67% 29.86 in 10.0 mi SSE 6.9 mph - N/A   Clear
10:15 PM 55.4 °F - 44.6 °F 67% 29.86 in 10.0 mi SSE 5.8 mph - N/A   Clear
10:35 PM 55.4 °F - 44.6 °F 67% 29.86 in 10.0 mi SSE 4.6 mph - N/A   Clear
10:55 PM 53.6 °F - 44.6 °F 72% 29.86 in 10.0 mi SSE 6.9 mph - N/A   Clear
11:15 PM 55.4 °F - 44.6 °F 67% 29.86 in 10.0 mi SSE 5.8 mph - N/A   Clear
11:35 PM 55.4 °F - 44.6 °F 67% 29.85 in 10.0 mi SSE 6.9 mph - N/A   Clear
11:55 PM 53.6 °F - 44.6 °F 72% 29.85 in 10.0 mi South 5.8 mph - N/A   Clear